Time,TemperatureF,DewpointF,PressureIn,WindDirection,WindDirectionDegrees,WindSpeedMPH,WindSpeedGustMPH,Humidity,HourlyPrecipIn,Conditions,Clouds,dailyrainin,SolarRadiationWatts/m^2,SoftwareType,DateUTC
2013-11-26 00:11:00,32.0,29.0,-100.00,NNE,32,4.0,6.0,89,-99.99,,,0.00,0.000000,,2013-11-26 08:11:00,
2013-11-26 00:22:00,32.0,29.0,-100.00,NNE,32,4.0,6.0,89,-99.99,,,0.00,0.000000,,2013-11-26 08:22:00,
2013-11-26 00:32:00,32.0,29.0,-100.00,NNE,32,4.0,6.0,89,-99.99,,,0.00,0.000000,,2013-11-26 08:32:00,
2013-11-26 00:42:00,32.0,29.0,-100.00,NNE,32,4.0,6.0,89,-99.99,,,0.00,0.000000,,2013-11-26 08:42:00,
2013-11-26 01:21:00,32.0,28.0,-100.00,NNE,29,4.0,6.0,87,-99.99,,,0.00,0.000000,,2013-11-26 09:21:00,
2013-11-26 01:33:00,32.0,28.0,-100.00,NNE,29,4.0,6.0,87,-99.99,,,0.00,0.000000,,2013-11-26 09:33:00,
2013-11-26 01:43:00,32.0,28.0,-100.00,NNE,29,4.0,6.0,87,-99.99,,,0.00,0.000000,,2013-11-26 09:43:00,
2013-11-26 02:23:00,31.0,27.0,-100.00,NNE,27,5.0,7.0,87,-99.99,,,0.00,0.000000,,2013-11-26 10:23:00,
2013-11-26 02:33:00,31.0,27.0,-100.00,NNE,27,5.0,7.0,87,-99.99,,,0.00,0.000000,,2013-11-26 10:33:00,
2013-11-26 02:43:00,31.0,27.0,-100.00,NNE,27,5.0,7.0,87,-99.99,,,0.00,0.000000,,2013-11-26 10:43:00,
2013-11-26 03:12:00,31.0,28.0,-100.00,NNE,24,5.0,6.0,87,-99.99,,,0.00,0.000000,,2013-11-26 11:12:00,
2013-11-26 03:23:00,31.0,28.0,-100.00,NNE,24,5.0,6.0,87,-99.99,,,0.00,0.000000,,2013-11-26 11:23:00,
2013-11-26 03:33:00,31.0,28.0,-100.00,NNE,24,5.0,6.0,87,-99.99,,,0.00,0.000000,,2013-11-26 11:33:00,
2013-11-26 03:42:00,31.0,28.0,-100.00,NNE,24,5.0,6.0,87,-99.99,,,0.00,0.000000,,2013-11-26 11:42:00,
2013-11-26 04:21:00,30.0,28.0,-100.00,NNE,29,4.0,6.0,90,-99.99,,,0.00,0.000000,,2013-11-26 12:21:00,
2013-11-26 04:32:00,30.0,28.0,-100.00,NNE,29,4.0,6.0,90,-99.99,,,0.00,0.000000,,2013-11-26 12:32:00,
2013-11-26 04:42:00,30.0,28.0,-100.00,NNE,29,4.0,6.0,90,-99.99,,,0.00,0.000000,,2013-11-26 12:42:00,
2013-11-26 05:21:00,31.0,28.0,-100.00,NNE,24,4.0,5.0,89,-99.99,,,0.00,0.000000,,2013-11-26 13:21:00,
2013-11-26 05:32:00,31.0,28.0,-100.00,NNE,24,4.0,5.0,89,-99.99,,,0.00,0.000000,,2013-11-26 13:32:00,
2013-11-26 05:42:00,31.0,28.0,-100.00,NNE,24,4.0,5.0,89,-99.99,,,0.00,0.000000,,2013-11-26 13:42:00,
2013-11-26 06:21:00,31.0,28.0,-100.00,NNE,33,4.0,5.0,88,-99.99,,,0.00,0.000000,,2013-11-26 14:21:00,
2013-11-26 06:32:00,31.0,28.0,-100.00,NNE,33,4.0,5.0,88,-99.99,,,0.00,0.000000,,2013-11-26 14:32:00,
2013-11-26 06:42:00,31.0,28.0,-100.00,NNE,33,4.0,5.0,88,-99.99,,,0.00,0.000000,,2013-11-26 14:42:00,
2013-11-26 07:21:00,29.0,26.0,-100.00,NE,53,5.0,7.0,89,-99.99,,,-99.99,0.000000,,2013-11-26 15:21:00,
2013-11-26 07:33:00,29.0,26.0,-100.00,NE,53,5.0,7.0,89,-99.99,,,-99.99,0.000000,,2013-11-26 15:33:00,
2013-11-26 07:43:00,29.0,26.0,-100.00,NE,53,5.0,7.0,89,-99.99,,,-99.99,0.000000,,2013-11-26 15:43:00,
2013-11-26 08:23:00,30.0,27.0,-100.00,NNE,22,6.0,9.0,88,-99.99,,,-99.99,0.230000,,2013-11-26 16:23:00,
2013-11-26 08:34:00,30.0,27.0,-100.00,NNE,22,6.0,9.0,88,-99.99,,,-99.99,0.230000,,2013-11-26 16:34:00,
2013-11-26 08:43:00,30.0,27.0,-100.00,NNE,22,6.0,9.0,88,-99.99,,,-99.99,0.230000,,2013-11-26 16:43:00,
2013-11-26 09:22:00,31.0,28.0,-100.00,NNE,31,4.0,6.0,88,-99.99,,,0.00,43.230000,,2013-11-26 17:22:00,
2013-11-26 09:33:00,31.0,28.0,-100.00,NNE,31,4.0,6.0,88,-99.99,,,0.00,43.230000,,2013-11-26 17:33:00,
2013-11-26 09:42:00,31.0,28.0,-100.00,NNE,31,4.0,6.0,88,-99.99,,,0.00,43.230000,,2013-11-26 17:42:00,
2013-11-26 10:21:00,32.0,28.0,-100.00,NNE,16,4.0,6.0,85,-99.99,,,0.00,121.680000,,2013-11-26 18:21:00,
2013-11-26 10:32:00,32.0,28.0,-100.00,NNE,16,4.0,6.0,85,-99.99,,,0.00,121.680000,,2013-11-26 18:32:00,
2013-11-26 10:42:00,32.0,28.0,-100.00,NNE,16,4.0,6.0,85,-99.99,,,0.00,121.680000,,2013-11-26 18:42:00,
2013-11-26 11:52:00,36.0,30.0,-100.00,WSW,238,2.0,4.0,80,-99.99,,,0.00,270.100006,,2013-11-26 19:52:00,
2013-11-26 12:02:00,36.0,30.0,-100.00,WSW,238,2.0,4.0,80,-99.99,,,0.00,270.100006,,2013-11-26 20:02:00,
2013-11-26 12:11:00,36.0,30.0,-100.00,WSW,238,2.0,4.0,80,-99.99,,,0.00,270.100006,,2013-11-26 20:11:00,
2013-11-26 12:53:00,38.0,32.0,-100.00,SSW,213,3.0,4.0,77,-99.99,,,0.00,337.739990,,2013-11-26 20:53:00,
2013-11-26 13:02:00,38.0,32.0,-100.00,SSW,213,3.0,4.0,77,-99.99,,,0.00,337.739990,,2013-11-26 21:02:00,
2013-11-26 13:11:00,38.0,32.0,-100.00,SSW,213,3.0,4.0,77,-99.99,,,0.00,337.739990,,2013-11-26 21:11:00,
2013-11-26 13:53:00,42.0,34.0,-100.00,SSE,163,2.0,4.0,72,-99.99,,,0.00,379.690002,,2013-11-26 21:53:00,
2013-11-26 14:03:00,42.0,34.0,-100.00,SSE,163,2.0,4.0,72,-99.99,,,0.00,379.690002,,2013-11-26 22:03:00,
2013-11-26 14:13:00,42.0,34.0,-100.00,SSE,163,2.0,4.0,72,-99.99,,,0.00,379.690002,,2013-11-26 22:13:00,
2013-11-26 14:53:00,44.0,34.0,-100.00,SSE,153,3.0,5.0,68,-99.99,,,0.00,285.440002,,2013-11-26 22:53:00,
2013-11-26 15:02:00,44.0,34.0,-100.00,SSE,153,3.0,5.0,68,-99.99,,,0.00,285.440002,,2013-11-26 23:02:00,
2013-11-26 15:12:00,44.0,34.0,-100.00,SSE,153,3.0,5.0,68,-99.99,,,0.00,285.440002,,2013-11-26 23:12:00,
2013-11-26 15:53:00,44.0,35.0,-100.00,SE,146,3.0,9.0,70,-99.99,,,0.00,144.000000,,2013-11-26 23:53:00,
2013-11-26 16:02:00,44.0,35.0,-100.00,SE,146,3.0,9.0,70,-99.99,,,0.00,144.000000,,2013-11-27 00:02:00,
2013-11-26 16:11:00,44.0,35.0,-100.00,SE,146,3.0,9.0,70,-99.99,,,0.00,144.000000,,2013-11-27 00:11:00,
2013-11-26 16:52:00,42.0,33.0,-100.00,East,97,3.0,6.0,69,-99.99,,,0.00,67.639999,,2013-11-27 00:52:00,
2013-11-26 17:02:00,42.0,33.0,-100.00,East,97,3.0,6.0,69,-99.99,,,0.00,67.639999,,2013-11-27 01:02:00,
2013-11-26 17:11:00,42.0,33.0,-100.00,East,97,3.0,6.0,69,-99.99,,,0.00,67.639999,,2013-11-27 01:11:00,
2013-11-26 17:52:00,39.0,32.0,-100.00,NNE,20,4.0,6.0,77,-99.99,,,0.00,1.740000,,2013-11-27 01:52:00,
2013-11-26 18:02:00,39.0,32.0,-100.00,NNE,20,4.0,6.0,77,-99.99,,,0.00,1.740000,,2013-11-27 02:02:00,
2013-11-26 18:12:00,39.0,32.0,-100.00,NNE,20,4.0,6.0,77,-99.99,,,0.00,1.740000,,2013-11-27 02:12:00,
2013-11-26 18:52:00,37.0,32.0,-100.00,NNE,26,4.0,6.0,82,-99.99,,,0.00,0.000000,,2013-11-27 02:52:00,
2013-11-26 19:02:00,37.0,32.0,-100.00,NNE,26,4.0,6.0,82,-99.99,,,0.00,0.000000,,2013-11-27 03:02:00,
2013-11-26 19:11:00,37.0,32.0,-100.00,NNE,26,4.0,6.0,82,-99.99,,,0.00,0.000000,,2013-11-27 03:11:00,
2013-11-26 19:44:00,35.0,31.0,-100.00,NNE,21,3.0,5.0,83,-99.99,,,0.00,0.000000,,2013-11-27 03:44:00,
2013-11-26 19:53:00,35.0,31.0,-100.00,NNE,21,3.0,5.0,83,-99.99,,,0.00,0.000000,,2013-11-27 03:53:00,
2013-11-26 20:03:00,35.0,31.0,-100.00,NNE,21,3.0,5.0,83,-99.99,,,0.00,0.000000,,2013-11-27 04:03:00,
2013-11-26 20:13:00,35.0,31.0,-100.00,NNE,21,3.0,5.0,83,-99.99,,,0.00,0.000000,,2013-11-27 04:13:00,
2013-11-26 20:53:00,35.0,32.0,-100.00,NNE,21,4.0,6.0,85,-99.99,,,0.00,0.000000,,2013-11-27 04:53:00,
2013-11-26 21:02:00,35.0,32.0,-100.00,NNE,21,4.0,6.0,85,-99.99,,,0.00,0.000000,,2013-11-27 05:02:00,
2013-11-26 21:12:00,35.0,32.0,-100.00,NNE,21,4.0,6.0,85,-99.99,,,0.00,0.000000,,2013-11-27 05:12:00,
2013-11-26 21:42:00,34.0,31.0,-100.00,NNE,24,4.0,5.0,88,-99.99,,,0.00,0.000000,,2013-11-27 05:42:00,
2013-11-26 21:53:00,34.0,31.0,-100.00,NNE,24,4.0,5.0,88,-99.99,,,0.00,0.000000,,2013-11-27 05:53:00,
2013-11-26 22:02:00,34.0,31.0,-100.00,NNE,24,4.0,5.0,88,-99.99,,,0.00,0.000000,,2013-11-27 06:02:00,
2013-11-26 22:12:00,34.0,31.0,-100.00,NNE,24,4.0,5.0,88,-99.99,,,0.00,0.000000,,2013-11-27 06:12:00,
2013-11-26 22:52:00,33.0,31.0,-100.00,NNE,24,4.0,5.0,89,-99.99,,,0.00,0.000000,,2013-11-27 06:52:00,
2013-11-26 23:02:00,33.0,31.0,-100.00,NNE,24,4.0,5.0,89,-99.99,,,0.00,0.000000,,2013-11-27 07:02:00,
2013-11-26 23:11:00,33.0,31.0,-100.00,NNE,24,4.0,5.0,89,-99.99,,,0.00,0.000000,,2013-11-27 07:11:00,
2013-11-26 23:42:00,32.0,30.0,-100.00,NNE,29,4.0,6.0,91,-99.99,,,0.00,0.000000,,2013-11-27 07:42:00,
2013-11-26 23:52:00,32.0,30.0,-100.00,NNE,29,4.0,6.0,91,-99.99,,,0.00,0.000000,,2013-11-27 07:52:00,